Location: Emory University Observatory
(33.7903°N, 84.3267°W)
Time: 18:03:34
(UTC-04:00)

Tiangong 2 - Pass Details

Date: 12 October 2017
Orbit: 388 x 392 km, 42.8° (Epoch: 19 October)

Event Time Altitude Azimuth Distance (km) Brightness Sun altitude
Exits shadow 06:48:32 12° 315° (NW) 1,330 3.4 -11.5°
Maximum altitude 06:50:24 17° 354° (N) 1,077 3.2 -11.1°
Drops below altitude 10° 06:52:36 10° 37° (NE) 1,422 4.4 -10.7°
Sets 06:55:11 0° 59° (ENE) 2,278 6.0 -10.1°
